Tracking 29487 objects as of 10-Sep-2024
HD Live streaming from Space Station
objects crossing your sky now

THORAD AGENA D DEB

Track THORAD AGENA D DEB now!
10-day predictions


NORAD ID: 10136
Int'l Code: 1970-025NQ
Perigee: 1,071.2 km
Apogee: 1,073.7 km
Inclination: 100.1 °
Period: 106.5 minutes
Semi major axis: 7443 km
RCS: 0.0546 m2 (small)
Launch date: April 8, 1970
Source: United States (US)
Launch site: AIR FORCE WESTERN TEST RANGE (AFWTR)

Note: This is SATELLITE DEBRIS
Your satellite tracking list
Your tracking list is empty




NASA's NSSDC Master Catalog

Two Line Element Set (TLE):
1 10136U 70025NQ  24253.84842207  .00000203  00000-0  38034-3 0  9992
2 10136 100.0685 206.7979 0001655 114.8615 301.2440 13.51889593683290
Source of the keplerian elements: AFSPC